Retour au catalogue

DELTA 1 DEB

ActifSSO
NORAD 12542·DEBRIS·🇺🇸 United States

Lancé Jul 29, 1976 depuis Vandenberg Space Force Base

Loading…

Prochains Passages (prochaines 24 heures)

TLE

FraisSource: Space-Track

Époque: Sep 13, 2026, 21:49 UTC

1 12542U 76077DX  26256.90923199  .00000036  00000-0  51885-3 0  9993
2 12542 101.9598 241.2757 0060403 114.1233 302.1866 12.52410635 89197

Suivez DELTA 1 DEB en temps réel avec AllMySat

Download on the App Store